Miscellaneous Local Product
Issued by NWS Hastings, NE

Home | Current Version | Previous Version | Graphics & Text | Print | Product List | Glossary On
Versions: 1 2 3 4 5 6 7 8 9 10 11 12 13 14 15 16 17 18 19 20 21 22 23 24 25 26 27 28 29 30 31 32 33 34 35 36 37 38 39 40 41 42 43 44 45 46 47 48 49 50
000
AXUS43 KGID 031402
MISGRI

GID CWA HOURLY WEATHER ROUNDUP
NATIONAL WEATHER SERVICE HASTINGS NE
900 AM CDT WED JUN 03 2015

NOTE: "FAIR" INDICATES FEW OR NO CLOUDS BELOW 12,000 FEET WITH NO
SIGNIFICANT WEATHER AND/OR OBSTRUCTIONS TO VISIBILITY.

...SOUTH CENTRAL NEBRASKA...

CITY           SKY/WX    TMP DP  RH WIND       PRES   REMARKS
GRAND ISLAND   CLOUDY    62  60  93 S13G24    29.84R
HASTINGS       CLOUDY    63  60  90 SE17      29.84F
KEARNEY        PTSUNNY   63  57  82 SE14G21   29.83F
ORD            CLOUDY    67  60  78 NW7       29.82F
YORK           CLOUDY    63  61  94 SE13      29.86F
AURORA         LGT RAIN  62  61  97 S21       29.78F
LEXINGTON      PTSUNNY   64  60  85 N12       29.91R
HOLDREGE       MOSUNNY   64  56  76 SE18      29.85F
HEBRON         CLOUDY    62  60  93 SE6       29.90F

...NEBRASKA PANHANDLE...

CITY           SKY/WX    TMP DP  RH WIND       PRES   REMARKS
CHADRON        SUNNY     60  54  80 MISG      30.02R
ALLIANCE       SUNNY     60  53  77 VRB5      29.98S
SCOTTSBLUFF    SUNNY     60  52  74 W9        30.03R
SIDNEY           N/A    N/A N/A N/A MISG      30.03R

...WESTERN AND NORTH CENTRAL NEBRASKA...

CITY           SKY/WX    TMP DP  RH WIND       PRES   REMARKS
VALENTINE      SUNNY     65  55  70 N13       29.95R
AINSWORTH      MOSUNNY   65  56  72 NW15      29.93R
ONEILL         CLOUDY    67  62  84 NW6       29.88R
BROKEN BOW     MOSUNNY   68  57  68 CALM      29.88R
IMPERIAL       PTSUNNY   65  55  70 NE7       29.93R
NORTH PLATTE   LGT RAIN  63  57  81 SW15      29.95R
MCCOOK         MOSUNNY   70  55  59 SE15      29.86R

...EASTERN NEBRASKA...

CITY           SKY/WX    TMP DP  RH WIND       PRES   REMARKS
NORFOLK        CLOUDY    66  60  81 N7        29.81F
SO SIOUX CITY  CLOUDY    68  61  78 W5        29.82F
TEKAMAH        LGT RAIN  66  62  87 W10G16    29.85F
COLUMBUS       CLOUDY    64  57  77 W8        29.80R
ALBION         CLOUDY    64  59  83 NW6       29.82R
OMAHA EPPLEY   LGT RAIN  66  63  90 S13       29.89F
MILLARD        RAIN      65  62  91 S8        29.91F
LINCOLN        LGT RAIN  63  62  97 S12       29.87F FOG
NEBRASKA CITY  LGT RAIN  64  64  99 W7        29.96R
BEATRICE       LGT RAIN  62  61  97 S5        29.95R
FALLS CITY     RAIN      64  63  96 N5        29.95R FOG

...NORTHERN KANSAS...

CITY           SKY/WX    TMP DP  RH WIND       PRES   REMARKS
GOODLAND       CLOUDY    62  60  93 E24G35    29.91R
HILL CITY      CLOUDY    66  58  75 E23G30    29.89F
NORTON         CLOUDY    68  54  60 E10       29.87F
PHILLIPSBURG   CLOUDY    70  59  68 E15G21    29.89F
SMITH CENTER   CLOUDY    63  57  82 E15G23    29.90F
BELOIT           N/A     63  61  94 E16       29.91F
HAYS           CLOUDY    70  61  73 E18       29.89S
RUSSELL        CLOUDY    69  66  90 NE23G29   29.89R
CONCORDIA      LGT RAIN  61  60  97 E10       29.93F
SALINA         PTSUNNY   74  65  73 N13       29.93R
TOPEKA         CLOUDY    69  66  90 N6        29.94R



USA.gov is the U.S. government's official web portal to all federal, state and local government web resources and services.